This is the latest recevied weather packets stored in our database for station/object WL7CLI. If no packets are shown the sender has not sent any weather packets the latest 10 day(s).
| Time | Temp. | Humidity | Pressure | Rain* | Wind** | Luminosity | Snow |
|---|---|---|---|---|---|---|---|
| 1777994904 | 12.22° C | 44% | 1011.5 hPa | 0 mm | - | - | - |
| 1777994299 | 12.22° C | 50% | 1011.5 hPa | 0 mm | - | - | - |
| 1777994175 | 11.67° C | 48% | 1011.4 hPa | 0 mm | - | - | - |
| 1777993105 | 11.67° C | 45% | 1011.4 hPa | 0 mm | - | - | - |
| 1777993098 | 11.67° C | 45% | 1011.5 hPa | 0 mm | - | - | - |
| 1777992971 | 11.67° C | 46% | 1011.5 hPa | 0 mm | - | - | - |
| 1777991899 | 11.11° C | 48% | 1011.4 hPa | 0 mm | - | - | - |
| 1777991772 | 11.11° C | 47% | 1011.5 hPa | 0 mm | - | - | - |
| 1777991304 | 11.11° C | 52% | 1011.5 hPa | 0 mm | - | - | - |
| 1777990699 | 11.11° C | 59% | 1011.3 hPa | 0 mm | - | - | - |
| 1777990574 | 11.11° C | 56% | 1011.2 hPa | 0 mm | - | - | - |
| 1777989504 | 10.56° C | 55% | 1010.8 hPa | 0 mm | - | - | - |
| 1777989499 | 10.56° C | 55% | 1010.8 hPa | 0 mm | - | - | - |
| 1777989374 | 10.56° C | 55% | 1010.8 hPa | 0 mm | - | - | - |
| 1777988298 | 10° C | 67% | 1010.6 hPa | 0 mm | - | - | - |
| 1777988175 | 10° C | 67% | 1010.6 hPa | 0 mm | - | - | - |
| 1777987704 | 10° C | 71% | 1010.5 hPa | 0 mm | - | - | - |
| 1777987099 | 10° C | 75% | 1010.4 hPa | 0 mm | - | - | - |
| 1777986974 | 10° C | 75% | 1010.4 hPa | 0 mm | - | - | - |
| 1777985904 | 9.44° C | 76% | 1010.1 hPa | 0 mm | - | - | - |
| 1777985898 | 9.44° C | 76% | 1010.1 hPa | 0 mm | - | - | - |
| 1777985771 | 9.44° C | 76% | 1010.1 hPa | 0 mm | - | - | - |
| 1777984700 | 8.33° C | 83% | 1010.3 hPa | 0 mm | - | - | - |
| 1777984575 | 8.33° C | 83% | 1010.4 hPa | 0 mm | - | - | - |
| 1777984104 | 7.78° C | 84% | 1010.6 hPa | 0 mm | - | - | - |
* Rain latest hour (hover to see other rain measurements)
** Current wind speed in m/s (hover to see current wind gust speed)